Lakeland Region, FL

11:13 PM EDT on September 19, 2017 (GMT -0400)
Lakeland Linder Regional

Weather History for KLAL - March, 2013

Change the Weather History Date:

Wednesday, March 6, 2013

  Actual Average Record
Temperature  
Mean Temperature 55 °F -  
Max Temperature 66 °F 74 °F 88 °F (1992)
Min Temperature 44 °F 55 °F 39 °F (2007)
Degree Days  
Heating Degree Days 10    
Growing Degree Days 5 (Base 50)    
Moisture  
Dew Point 46 °F    
Average Humidity 72    
Maximum Humidity 94    
Minimum Humidity 23    
Precipitation  
Precipitation 0.00 in - - ()
Sea Level Pressure  
Sea Level Pressure 30.06 in    
Wind  
Wind Speed 9 mph (West)    
Max Wind Speed 22 mph    
Max Gust Speed 30 mph    
Visibility 12 miles    
Events Rain    
Averages and records for this station are not official NWS values.
T = Trace of Precipitation, MM = Missing Value Source: NWS Daily Summary

Daily Weather History Graph

Daily Weather History Graph

Search for Another Location

Airport or City:

Trip Planner

Search our weather history database for the weather conditions in past years. The results will help you decide how hot, cold, wet, or windy it might be!

Date:

Astronomy

Mar. 06, 2013 Rise Set
Actual Time 6:47 AM EST 6:31 PM EST
Civil Twilight 6:23 AM EST 6:55 PM EST
Nautical Twilight 5:56 AM EST 7:22 PM EST
Astronomical Twilight 5:29 AM EST 7:49 PM EST
Moon 2:34 AM EST (3/6) 1:32 PM EST (3/6)
Length of Visible Light 12h 31m
Length of Day
11h 44m
Waning Crescent, 30% of the Moon is Illuminated
Mar 6
Waning Crescent
Mar 11
New
Mar 19
First Quarter
Mar 27
Full
Apr 3
Last Quarter

Hourly Weather History & Observations

Time (EST) Temp. Windchill Dew Point Humidity Pressure Visibility Wind Dir Wind Speed Gust Speed Precip Events Conditions
12:15 AM 59.0 °F - 57.2 °F 94% 30.05 in 10.0 mi SW 9.2 mph - N/A   Mostly Cloudy
12:35 AM 59.0 °F - 57.2 °F 94% 30.04 in 10.0 mi SW 8.1 mph - N/A   Scattered Clouds
12:55 AM 59.0 °F - 57.2 °F 94% 30.04 in 10.0 mi SW 8.1 mph - N/A   Clear
1:15 AM 60.8 °F - 59.0 °F 94% 30.03 in 10.0 mi SW 6.9 mph - N/A   Mostly Cloudy
1:55 AM 60.8 °F - 59.0 °F 94% 30.01 in 10.0 mi SW 6.9 mph - N/A   Overcast
2:15 AM 60.8 °F - 59.0 °F 94% 30.01 in 10.0 mi SW 8.1 mph - N/A   Mostly Cloudy
2:35 AM 60.8 °F - 59.0 °F 94% 30.00 in 10.0 mi WSW 6.9 mph - N/A   Overcast
2:55 AM 60.8 °F - 59.0 °F 94% 29.99 in 10.0 mi WSW 8.1 mph - N/A   Overcast
3:15 AM 60.8 °F - 59.0 °F 94% 29.98 in 10.0 mi SW 8.1 mph - N/A   Mostly Cloudy
3:35 AM 60.8 °F - 59.0 °F 94% 29.98 in 10.0 mi SW 8.1 mph - N/A   Overcast
3:55 AM 62.6 °F - 60.8 °F 94% 29.97 in 7.0 mi SW 11.5 mph 16.1 mph N/A   Light Drizzle
4:15 AM 62.6 °F - 60.8 °F 94% 29.97 in 7.0 mi WSW 6.9 mph - N/A Rain Rain
4:35 AM 62.6 °F - 60.8 °F 94% 29.98 in 5.0 mi West 9.2 mph - N/A Rain Heavy Rain
4:55 AM 62.6 °F - 60.8 °F 94% 29.98 in 10.0 mi WSW 8.1 mph - N/A   Overcast
5:15 AM 62.6 °F - 60.8 °F 94% 29.98 in 10.0 mi WSW 6.9 mph - N/A   Overcast
5:35 AM 62.6 °F - 60.8 °F 94% 29.98 in 10.0 mi WSW 8.1 mph - N/A   Overcast
5:50 AM 62.6 °F - 60.8 °F 94% 30.01 in 10.0 mi NW 16.1 mph 23.0 mph N/A   Overcast
6:50 AM 55.4 °F - 48.2 °F 77% 30.05 in 10.0 mi NW 13.8 mph - N/A   Mostly Cloudy
7:50 AM 53.6 °F - 46.4 °F 77% 30.09 in 15.0 mi NW 9.2 mph 17.3 mph N/A   Mostly Cloudy
8:50 AM 53.6 °F - 35.6 °F 51% 30.13 in 15.0 mi North 10.4 mph 20.7 mph N/A   Partly Cloudy
9:50 AM 55.4 °F - 33.8 °F 44% 30.13 in 15.0 mi NNW 15.0 mph 21.9 mph N/A   Clear
10:50 AM 59.0 °F - 35.6 °F 42% 30.13 in 15.0 mi NW 11.5 mph 19.6 mph N/A   Clear
11:50 AM 62.6 °F - 30.2 °F 30% 30.11 in 15.0 mi WNW 21.9 mph 29.9 mph N/A   Clear
12:50 PM 66.2 °F - 26.6 °F 23% 30.06 in 15.0 mi WNW 18.4 mph 25.3 mph N/A   Clear
1:50 PM 64.4 °F - 26.6 °F 24% 30.04 in 15.0 mi WNW 20.7 mph 29.9 mph N/A   Clear
3:50 PM 62.6 °F - 28.4 °F 27% 30.04 in 20.0 mi NW 19.6 mph 28.8 mph N/A   Clear
4:50 PM 60.8 °F - 28.4 °F 29% 30.04 in 20.0 mi WNW 20.7 mph 29.9 mph N/A   Clear
5:55 PM 57.2 °F - 30.2 °F 36% 30.05 in 20.0 mi WNW 17.3 mph 23.0 mph N/A   Clear
6:50 PM 53.6 °F - 33.8 °F 47% 30.08 in 20.0 mi WNW 13.8 mph - N/A   Clear
8:50 PM 50.0 °F - 35.6 °F 58% 30.11 in 15.0 mi WNW 8.1 mph - N/A   Clear
9:50 PM 46.4 °F - 35.6 °F 66% 30.14 in 15.0 mi Calm Calm - N/A   Clear
9:55 PM 44.6 °F - 35.6 °F 71% 30.14 in 10.0 mi Calm Calm - N/A   Clear
10:15 PM 44.6 °F - 35.6 °F 71% 30.15 in 10.0 mi Calm Calm - N/A   Clear
10:35 PM 44.6 °F 43.1 °F 35.6 °F 71% 30.16 in 10.0 mi WNW 3.5 mph - N/A   Clear
10:55 PM 44.6 °F 42.2 °F 35.6 °F 71% 30.16 in 10.0 mi WNW 4.6 mph - N/A   Clear
11:15 PM 44.6 °F 41.4 °F 35.6 °F 71% 30.16 in 10.0 mi NNW 5.8 mph - N/A   Clear
11:35 PM 44.6 °F 40.2 °F 35.6 °F 71% 30.16 in 10.0 mi North 8.1 mph - N/A   Clear
11:55 PM 44.6 °F 39.7 °F 33.8 °F 66% 30.16 in 10.0 mi North 9.2 mph - N/A   Clear